Regional Weather Roundup
Issued by NWS

Home | Current Version | Previous Version | Text Only | Print | Product List | Glossary Off
Versions: 1 2 3 4 5 6 7 8 9 10 11 12 13 14 15 16 17 18 19 20 21 22 23 24 25 26 27 28 29 30 31 32 33 34 35 36 37 38 39 40 41 42 43 44 45 46 47 48 49 50

000
ASUS43 KLOT 021358
RWRIL

ILLINOIS REGIONAL WEATHER ROUNDUP
NATIONAL WEATHER SERVICE CHICAGO/ROMEOVILLE IL
900 AM CDT THU OCT 02 2014

NOTE: "FAIR" INDICATES FEW OR NO CLOUDS BELOW 12,000 FEET WITH NO
SIGNIFICANT WEATHER AND/OR OBSTRUCTIONS TO VISIBILITY.

* THESE STATIONS ARE NOT UNDER NWS QUALITY CONTROL. THEY ALSO MAY NOT
  REPORT WEATHER SUCH AS PRECIPITATION OR FOG.

ILZ001-002-007-009-015-016-024-021500-
NORTHWEST ILLINOIS

CITY           SKY/WX    TMP DP  RH WIND       PRES   REMARKS
MOLINE         PTSUNNY   63  62  97 SE3       29.83S FOG
$$

ILZ003-004-008-010-011-017-018-021500-
NORTH CENTRAL ILLINOIS

CITY           SKY/WX    TMP DP  RH WIND       PRES   REMARKS
ROCKFORD       CLOUDY    66  61  84 S9        29.87R
$$

ILZ005-006-012>014-019>023-021500-
NORTHEAST ILLINOIS

CITY           SKY/WX    TMP DP  RH WIND       PRES   REMARKS
CHICAGO-OHARE  CLOUDY    65  60  84 SE8       29.88R
CHICAGO-MIDWAY NOT AVBL
AURORA         CLOUDY    68  63  84 SE8       29.88R HAZE
WAUKEGAN       NOT AVBL
DUPAGE AIRPORT CLOUDY    67  62  84 S8        29.87S
WHEELING       CLOUDY    67  61  81 S8        29.89R
NORTHERLY ISL    N/A     66  60  81 SE5         N/A
$$

LMZ740>746-021500-
SOUTHERN LAKE MICHIGAN

STATION/POSITION SKY/WX   TEMP    WIND        PRES    VSBY  WAVE
                          AIR SEA DIR/SP/G                  HT/PER
                          (F)     (DEG/KT/KT) (MB)    (MI)  (FT/S)
SOUTHERN BUOY              63 62  160/ 19/ 21 1011.8F         3/ 5
WAUKEGAN HARBOR            62     160/ 13/ 14   N/A
HARRISON CRIB              64     150/  5/  8   N/A
BURNHAM HARBOR             66     140/  5/  7   N/A
CALUMET HARBOR             65     180/  4/  6 1011.1S
MICHIGAN CITY              63     140/ 12/ 16   N/A
MICHIGAN CITY 6N           64 64  180/ 10/ 14   N/A           2/ 2
ST. JOSEPH                 63 63  150/ 10/ 17   N/A           1/ 2
$$

ILZ025>027-034>036-040-047-049-050-058-095>099-021500-
WEST-CENTRAL ILLINOIS

CITY           SKY/WX    TMP DP  RH WIND       PRES   REMARKS
$$

ILZ028>032-037-038-041>044-048-051>054-059>061-021500-
CENTRAL ILLINOIS

CITY           SKY/WX    TMP DP  RH WIND       PRES   REMARKS
PEORIA         CLOUDY    68  64  87 S7        29.85S
SPRINGFIELD    CLOUDY    68  65  90 S10       29.85S
TAYLORVILLE    NOT AVBL
$$

ILZ033-039-045-046-055>057-062-063-021500-
EAST-CENTRAL ILLINOIS

CITY           SKY/WX    TMP DP  RH WIND       PRES   REMARKS
$$

ILZ079-100>102-021500-
SOUTHWEST ILLINOIS

CITY           SKY/WX    TMP DP  RH WIND       PRES   REMARKS
ALTON          CLOUDY    66  66 100 SE14      29.88F
BELLEVILLE     PTSUNNY   70  70 100 NE6       29.89F
$$

ILZ064>066-069>071-074>076-080>082-084>086-088>090-092>094-021500-
SOUTH-CENTRAL ILLINOIS

CITY           SKY/WX    TMP DP  RH WIND       PRES   REMARKS
CARBONDALE     CLOUDY    75  65  70 S10       29.92S
MARION         PTSUNNY   75  64  69 S12       29.94S
$$

ILZ067-068-072-073-078-083-087-091-021500-
SOUTHEAST ILLINOIS

CITY           SKY/WX    TMP DP  RH WIND       PRES   REMARKS
$$

ABBREVIATIONS USED IN REMARKS
   TC - TEMPERATURE IN CELSIUS
  WCI - WIND CHILL INDEX
   HX - HEAT INDEX
  VSB - VISIBILITY
$$



USA.gov is the U.S. government's official web portal to all federal, state and local government web resources and services.